TimeMST,TemperatureF,Dew PointF,Humidity,Sea Level PressureIn,VisibilityMPH,Wind Direction,Wind SpeedMPH,Gust SpeedMPH,PrecipitationIn,Events,Conditions,WindDirDegrees,DateUTC
12:53 AM,39.9,28.0,63,30.15,10.0,SSE,6.9,-,N/A,,Clear,150,2011-12-29 07:53:00
1:53 AM,39.9,27.0,60,30.13,10.0,SE,3.5,-,N/A,,Clear,130,2011-12-29 08:53:00
2:53 AM,39.0,27.0,62,30.12,10.0,SE,8.1,-,N/A,,Clear,140,2011-12-29 09:53:00
3:53 AM,41.0,24.1,51,30.10,10.0,SSE,8.1,-,N/A,,Clear,160,2011-12-29 10:53:00
4:53 AM,39.2,24.8,56,30.13,10.0,SE,9.2,-,N/A,,Clear,140,2011-12-29 11:53:00
5:53 AM,42.1,23.0,47,30.09,10.0,SE,11.5,-,N/A,,Clear,130,2011-12-29 12:53:00
6:53 AM,41.0,23.0,49,30.08,10.0,SE,11.5,-,N/A,,Clear,140,2011-12-29 13:53:00
7:53 AM,39.2,24.8,56,30.12,10.0,SE,9.2,-,N/A,,Clear,140,2011-12-29 14:53:00
8:53 AM,46.9,23.0,39,30.09,10.0,SE,9.2,-,N/A,,Clear,140,2011-12-29 15:53:00
9:53 AM,53.6,23.0,30,30.14,10.0,South,4.6,-,N/A,,Clear,190,2011-12-29 16:53:00
10:53 AM,55.9,23.0,28,30.10,10.0,SE,4.6,-,N/A,,Clear,130,2011-12-29 17:53:00
11:53 AM,62.1,24.1,23,30.06,10.0,Calm,Calm,-,N/A,,Clear,0,2011-12-29 18:53:00
12:53 PM,68.0,23.0,18,30.01,10.0,Calm,Calm,-,N/A,,Clear,0,2011-12-29 19:53:00
1:53 PM,70.0,19.0,14,29.99,10.0,Calm,Calm,-,N/A,,Clear,0,2011-12-29 20:53:00
2:53 PM,71.6,19.4,14,30.02,10.0,Calm,Calm,-,N/A,,Clear,0,2011-12-29 21:53:00
3:53 PM,72.0,19.9,14,29.96,10.0,WSW,4.6,-,N/A,,Clear,250,2011-12-29 22:53:00
4:53 PM,69.1,21.9,17,29.97,10.0,West,4.6,-,N/A,,Clear,270,2011-12-29 23:53:00
5:53 PM,64.0,27.0,25,29.99,10.0,North,4.6,-,N/A,,Clear,350,2011-12-30 00:53:00
6:53 PM,60.1,28.0,30,30.02,10.0,Calm,Calm,-,N/A,,Clear,0,2011-12-30 01:53:00
7:53 PM,53.1,30.0,41,30.04,10.0,South,3.5,-,N/A,,Clear,180,2011-12-30 02:53:00
8:53 PM,50.0,32.0,50,30.04,10.0,Calm,Calm,-,N/A,,Clear,0,2011-12-30 03:53:00
9:53 PM,50.0,30.2,47,30.09,10.0,SSE,4.6,-,N/A,,Clear,150,2011-12-30 04:53:00
10:53 PM,45.0,33.1,63,30.05,10.0,SSE,8.1,-,N/A,,Clear,150,2011-12-30 05:53:00
11:53 PM,46.0,30.0,54,30.04,10.0,SSE,9.2,-,N/A,,Clear,150,2011-12-30 06:53:00